sat.trackr.live / text

‹ back to catalog

STARLINK-34414

NORAD 64620 · 2025-137AC

PAYLOAD ACTIVE UNKNOWN

§ Identity

Operator
Country
US
Launch date
2025-06-25
Launch site
AFETR
Launch vehicle
Mass (kg)
RCS (m²)

Purposes: comms

External: N2YO · Heavens-Above · Gunter

§ Orbital elements

Epoch: 2026-09-20T04:53:55.916160Z

Period
93.84 min
Inclination
53.1562°
Eccentricity
0.0001285
Mean motion
15.34477362 rev/d
Perigee alt
461.6 km
Apogee alt
463.4 km
Semi-major
6,840.6 km
B*
1.5231e-3
RAAN
149.0574°
Arg perigee
85.2994°
Mean anomaly
274.8155°
Rev number
7,055

§ Raw data

STARLINK-344141 64620U 25137AC  26263.20411940  .00051567  00000+0  15231-2 0  99932 64620  53.1562 149.0574 0001285  85.2994 274.8155 15.34477362 70556

JSON: /api/v1/satellites/64620 · /tle

For live sub-satellite position, see the globe view (requires WebGL).

§ Visibility from observer

Set your observer location to see the next 7 days of passes ≥ 10°. The values pass through the URL so the page stays shareable.

No JS? Fill the form by hand. The geolocation button needs JavaScript.